User: anonymous
Location: Austin, TX
(30.3000°N, 97.7500°W)
Time: 08:22:41
(UTC-05:00)
Language:

Cosmos 2082 Rocket - Orbit

View from above orbital plane
View from above orbital plane
View from above satellite
View from above satellite

Ground track
Ground track

The orbit data is extracted from the following two-line orbital elements,

1 20625U 90046B   14234.36922669 -.00000246  00000-0 -10309-3 0  7911
2 20625 071.0000 150.4040 0016078 237.9740 260.5285 14.14533260252201
Epoch (UTC): 22 August 2014 08:51:41
Eccentricity: 0.0016078
inclination: 71.0000°
perigee height: 832 km
apogee height: 855 km
right ascension of ascending node: 150.4040°
argument of perigee: 237.9740°
revolutions per day: 14.14533260
mean anomaly at epoch: 260.5285°
orbit number at epoch: 25220

The dashed part of the orbit path shows where the satellite is in the earth's shadow,  

DLR